ONEWEB-0376 (49302 NORAD) Tracking and Keplerian Element Data

This shows tracking and keplerian element data for the satellite.

Feedback or suggestion? Click here.




ElementValue
Catalog49302
NameONEWEB-0376
Epoch Orbit353
Epoch Day339.91667824
Epoch Year2021
RAAN276.2951
Inclination87.5063
Eccentricity0.0009566
Argument of Perigee91.3359
Mean Anonmoly15.2405
Mean Motion14.43580567
Decay Rate-0.00991467
L11 49302U 21090Z 21339.91667824 -.00991467 00000+0 -31310+0 0 9995
L22 49302 87.5063 276.2951 0009566 91.3359 15.2405 14.43580567 3538

Live tracking and technical data element details for ONEWEB-0376 (NORAD 49302). ONEWEB-0376 can be tracked NOW for your location showing map with azimuth and elevation plus other details from your city location.

Track the satellite on the map from your city or location and see movement details for azimuth, elevation, latitude, longitude, range, height, and movement on the map or in text.







IsCatalogInMostPopularTable: catalog: 49302, numindb: 3
Update: records affected: 1



GetName: 49302 ONEWEB-0376

Hit Count: updated at: Mon, 06 Dec 2021 15:07:55 GMT